This demonstration page uses our WeatherBlox Daily Observations layout. Learn more.

Left ArrowRight Arrow

Hourly Observations for May 28, 2021

Temp ( °F °C ) Dew Point ( °F °C ) Humidity (%) Winds ( mph kmh ) Pressure ( in mb ) Visibility ( mi km ) Precip ( " mm )
12:15 am 00:15 Clear 67 19.5 62 16.7 84 84 S 3 6 29.88 1012 10 16 0.00 0.00
12:35 am 00:35 Mostly Cloudy 67 19.6 62 16.7 83 83 SW 3 6 29.88 1012 10 16 0.00 0.00
12:55 am 00:55 Cloudy 67 19.6 62 16.9 85 85 SSE 3 6 29.88 1012 10 16 0.00 0.00
1:15 am 01:15 Cloudy 68 19.8 62 16.7 82 82 SSE 3 6 29.87 1011 10 16 0.00 0.00
1:35 am 01:35 Cloudy 67 19.6 62 16.8 84 84 Calm 29.86 1011 10 16 0.00 0.00
1:55 am 01:55 Cloudy 67 19.2 62 16.8 86 86 Calm 29.85 1011 10 16 0.00 0.00
2:15 am 02:15 Cloudy 66 18.8 62 16.8 88 88 Calm 29.84 1011 10 16 0.00 0.00
2:35 am 02:35 Cloudy 65 18.6 62 16.8 89 89 NNW 5 7 29.85 1011 10 16 0.00 0.00
2:55 am 02:55 Cloudy 66 19 62 16.7 87 87 N 3 6 29.84 1010 10 16 0.00 0.00
3:15 am 03:15 Cloudy 65 18.1 61 16.2 89 89 NNE 9 15 29.84 1011 10 16 0.00 0.00
3:35 am 03:35 Cloudy 64 17.7 61 16 90 90 Calm 29.82 1010 10 16 0.00 0.00
3:55 am 03:55 Cloudy 64 17.7 60 15.8 89 89 Calm 29.81 1010 10 16 0.00 0.00
4:15 am 04:15 Cloudy 64 17.5 60 15.8 90 90 Calm 29.81 1010 10 16 0.00 0.00
4:35 am 04:35 Cloudy 64 17.5 60 15.7 89 89 Calm 29.81 1010 10 16 0.00 0.00
4:55 am 04:55 Cloudy 65 18.3 62 16.5 89 89 WSW 6 9 29.81 1010 10 16 0.00 0.00
5:15 am 05:15 Cloudy 66 18.7 62 16.6 88 88 WSW 8 13 29.81 1010 10 16 0.00 0.00
5:35 am 05:35 Cloudy 65 18.6 62 16.6 88 88 W 12 19 29.81 1010 10 16 0.00 0.00
5:55 am 05:55 Cloudy 65 18.5 62 16.5 88 88 WSW 9 15 29.81 1010 10 16 0.00 0.00
6:15 am 06:15 Cloudy 65 18.3 62 16.6 90 90 WSW 9 15 29.81 1010 10 16 0.00 0.00
6:35 am 06:35 Cloudy with Rain 65 18.2 62 16.7 91 91 WSW 7 11 29.80 1009 10 16 0.00 0.00
6:55 am 06:55 Cloudy with Rain 64 17.9 63 17 95 95 WSW 6 9 29.80 1009 5 8 0.01 0.25
7:15 am 07:15 Cloudy with Drizzle 64 17.9 63 17 95 95 W 5 7 29.79 1009 7 11 0.00 0.00
7:35 am 07:35 Cloudy with Rain 64 17.9 63 17 95 95 W 5 7 29.80 1009 7 11 0.00 0.00
7:55 am 07:55 Cloudy with Heavy Rain 64 17.7 63 17 96 96 W 6 9 29.80 1009 4 6 0.02 0.51
8:15 am 08:15 Cloudy with Heavy Rain 64 17.5 63 17 97 97 W 3 6 29.81 1010 2 3 0.06 1.52
8:35 am 08:35 Cloudy with Rain 61 15.9 59 15.2 96 96 NE 3 6 29.82 1010 3 5 0.10 2.54
8:55 am 08:55 Cloudy with Rain 60 15.3 59 14.9 97 97 ENE 7 11 29.81 1010 4 6 0.12 3.05
9:15 am 09:15 Cloudy with Light Rain 58 14.7 58 14.3 97 97 NNE 6 9 29.82 1010 5 8 0.01 0.25
9:35 am 09:35 Cloudy with Rain 57 14 56 13.5 97 97 NE 6 9 29.83 1010 5 8 0.02 0.51
9:55 am 09:55 Cloudy 57 13.7 56 13.1 96 96 NNE 9 15 29.83 1010 7 11 0.02 0.51
10:15 am 10:15 Cloudy 56 13.5 55 12.8 96 96 NE 10 17 29.84 1010 7 11 0.00 0.00
10:35 am 10:35 Cloudy with Rain 56 13.3 55 12.9 97 97 NNE 15 24 29.84 1010 5 8 0.01 0.25
10:55 am 10:55 Cloudy with Rain 54 12.1 53 11.5 96 96 N 14 22 29.85 1011 3 5 0.03 0.76
11:15 am 11:15 Cloudy with Heavy Rain 52 11 51 10.4 96 96 N 14 22 29.87 1011 3 5 0.07 1.78
11:35 am 11:35 Cloudy with Light Rain 51 10.6 50 10.1 97 97 NNE 10 17 29.88 1012 5 8 0.13 3.30
11:55 am 11:55 Cloudy with Light Rain 51 10.6 50 9.9 95 95 NE 14 22 29.87 1011 10 16 0.13 3.30
12:15 pm 12:15 Cloudy with Light Rain 52 11.1 51 10.4 96 96 ENE 12 19 29.86 1011 10 16 0.01 0.25
12:35 pm 12:35 Cloudy 53 11.8 52 10.9 94 94 ENE 10 17 29.85 1011 10 16 0.01 0.25
12:55 pm 12:55 Cloudy 54 12.4 53 11.6 95 95 ENE 7 11 29.85 1011 10 16 0.01 0.25
1:15 pm 13:15 Cloudy 55 12.5 53 11.7 95 95 NE 10 17 29.86 1011 10 16 0.00 0.00
1:35 pm 13:35 Cloudy 55 12.5 53 11.6 94 94 NNE 13 20 29.86 1011 10 16 0.00 0.00
1:55 pm 13:55 Cloudy 55 12.5 52 11.2 92 92 NE 13 20 29.86 1011 10 16 0.00 0.00
2:15 pm 14:15 Cloudy 54 12.3 52 11 92 92 NE 16 26 29.86 1011 10 16 0.00 0.00
2:35 pm 14:35 Cloudy 54 12 51 10.7 92 92 NNE 18 30 29.85 1011 10 16 0.00 0.00
2:55 pm 14:55 Cloudy with Drizzle 54 12.1 51 10.8 92 92 NE 17 28 29.86 1011 10 16 0.00 0.00
3:15 pm 15:15 Cloudy with Drizzle 53 11.6 51 10.4 92 92 NNE 17 28 29.87 1011 10 16 0.00 0.00
3:35 pm 15:35 Cloudy with Light Rain 53 11.4 50 10 91 91 NNE 17 28 29.88 1012 10 16 0.01 0.25
3:55 pm 15:55 Cloudy with Rain 51 10.8 49 9.5 92 92 NNE 14 22 29.91 1013 4 6 0.04 1.02
4:15 pm 16:15 Cloudy with Heavy Rain 51 10.5 49 9.3 92 92 NNE 16 26 29.92 1013 3 4 0.07 1.78
4:35 pm 16:35 Cloudy with Rain 50 10.2 49 9.4 95 95 ENE 22 35 29.87 1012 4 6 0.19 4.83
4:55 pm 16:55 Cloudy with Light Rain 50 10 48 9.1 94 94 E 20 31 29.86 1011 10 16 0.21 5.33
5:15 pm 17:15 Cloudy with Rain 50 10 48 9.1 94 94 NNE 15 24 29.90 1013 7 11 0.01 0.25
5:35 pm 17:35 Cloudy 50 10 48 8.9 93 93 NE 18 30 29.90 1013 10 16 0.01 0.25
5:55 pm 17:55 Cloudy 51 10.8 49 9.2 90 90 NE 24 39 29.88 1012 10 16 0.01 0.25
6:15 pm 18:15 Cloudy with Nearby Thunderstorms 51 10.6 48 9.1 91 91 NE 17 28 29.88 1012 10 16 0.00 0.00
6:35 pm 18:35 Cloudy 51 10.7 48 8.9 89 89 NE 17 28 29.88 1012 10 16 0.00 0.00
6:55 pm 18:55 Cloudy 51 10.5 47 8.6 88 88 ENE 17 28 29.89 1012 10 16 0.00 0.00
7:15 pm 19:15 Cloudy 51 10.3 47 8.3 88 88 E 14 22 29.89 1012 10 16 0.00 0.00
7:35 pm 19:35 Cloudy 50 10.2 47 8.3 88 88 NE 14 22 29.92 1013 10 16 0.00 0.00
7:55 pm 19:55 Cloudy 50 10 47 8.1 88 88 NNE 16 26 29.94 1014 10 16 0.00 0.00
8:15 pm 20:15 Cloudy 50 9.9 46 8 88 88 NNE 10 17 29.95 1014 10 16 0.00 0.00
8:35 pm 20:35 Cloudy 49 9.6 46 7.9 89 89 NNE 15 24 29.96 1015 10 16 0.00 0.00
8:55 pm 20:55 Cloudy 49 9.5 46 7.7 89 89 NNE 16 26 29.97 1015 10 16 0.00 0.00
9:15 pm 21:15 Cloudy 48 9.1 45 7.4 89 89 NNE 16 26 29.98 1015 10 16 0.00 0.00
9:35 pm 21:35 Cloudy 48 9 45 7.3 89 89 NE 17 28 29.98 1015 10 16 0.00 0.00
9:55 pm 21:55 Cloudy 48 8.7 44 6.7 87 87 NNE 16 26 30.00 1016 10 16 0.00 0.00
10:15 pm 22:15 Cloudy 48 8.8 44 6.7 87 87 NE 15 24 29.99 1015 10 16 0.00 0.00
10:35 pm 22:35 Cloudy with Light Rain 47 8.6 45 7.1 90 90 NE 10 17 30.00 1016 10 16 0.01 0.25
10:55 pm 22:55 Cloudy with Light Rain 47 8.5 44 6.9 90 90 NE 14 22 30.00 1016 10 16 0.02 0.51
11:15 pm 23:15 Cloudy with Drizzle 47 8.1 44 6.7 91 91 NE 14 22 30.01 1016 10 16 0.00 0.00
11:35 pm 23:35 Cloudy with Drizzle 46 8 44 6.5 90 90 NE 14 22 30.01 1016 10 16 0.00 0.00
11:55 pm 23:55 Cloudy with Light Rain 46 7.9 44 6.6 92 92 NE 13 20 30.01 1016 10 16 0.00 0.00

Powered by AerisWeather